This is the latest recevied weather packets stored in our database for station/object OE6ACM-10. If no packets are shown the sender has not sent any weather packets the latest 10 day(s).
| Time | Temp. | Humidity | Pressure | Rain* | Wind** | Luminosity | Snow |
|---|---|---|---|---|---|---|---|
| 1788036419 | 20° C | 100% | 929 hPa | - | - | - | - |
| 1788036119 | 20° C | 100% | 928.9 hPa | - | - | - | - |
| 1788035819 | 20° C | 100% | 929 hPa | - | - | - | - |
| 1788035519 | 20° C | 100% | 929 hPa | - | - | - | - |
| 1788035219 | 20° C | 100% | 929 hPa | - | - | - | - |
| 1788034919 | 20.56° C | 100% | 929.1 hPa | - | - | - | - |
| 1788034619 | 20° C | 100% | 929.1 hPa | - | - | - | - |
| 1788034319 | 20° C | 100% | 929 hPa | - | - | - | - |
| 1788034019 | 20° C | 100% | 929 hPa | - | - | - | - |
| 1788033719 | 20° C | 100% | 928.9 hPa | - | - | - | - |
| 1788033419 | 20° C | 100% | 929 hPa | - | - | - | - |
| 1788033119 | 20.56° C | 100% | 928.9 hPa | - | - | - | - |
| 1788032819 | 20.56° C | 100% | 928.8 hPa | - | - | - | - |
| 1788032519 | 20.56° C | 100% | 928.8 hPa | - | - | - | - |
| 1788032219 | 20.56° C | 100% | 928.7 hPa | - | - | - | - |
| 1788031919 | 20.56° C | 100% | 928.6 hPa | - | - | - | - |
| 1788031619 | 21.11° C | 100% | 928.6 hPa | - | - | - | - |
| 1788031319 | 21.11° C | 100% | 928.6 hPa | - | - | - | - |
| 1788031019 | 21.11° C | 100% | 928.4 hPa | - | - | - | - |
| 1788030719 | 21.11° C | 100% | 928.4 hPa | - | - | - | - |
| 1788030419 | 21.11° C | 100% | 928.3 hPa | - | - | - | - |
| 1788030119 | 21.11° C | 100% | 928.3 hPa | - | - | - | - |
| 1788029819 | 21.67° C | 100% | 928.3 hPa | - | - | - | - |
| 1788029519 | 21.67° C | 100% | 928.2 hPa | - | - | - | - |
| 1788029219 | 22.22° C | 100% | 928.3 hPa | - | - | - | - |
* Rain since midnight (hover to see other rain measurements)
** Current wind speed in m/s (hover to see current wind gust speed)